Theta_e
340 340 340 341 342 343 344 345 346 346 346 346 347 347 347 346 347 349 349 347 347 346 346 346 345 343 343 345 345 345 346 346 346 347 347 347 346 343 340 337 335 334 334 334 335 338 341 344 346 347 348 349 346 342 343 347 347 345 347 350 351 349 347 345 341 333 324 321 321 321 320 319 316 316
341 340 340 340 340 340 343 345 346 346 346 346 346 346 346 346 346 347 348 348 347 345 345 347 347 343 343 345 347 347 347 347 346 346 345 344 342 340 338 337 336 335 335 335 336 338 340 343 346 347 347 348 346 341 340 345 346 343 344 349 350 350 348 346 345 341 331 322 321 322 321 319 318 315
343 343 342 341 340 340 341 343 345 345 344 344 345 345 346 346 346 345 346 348 347 343 343 345 345 344 343 343 344 345 344 344 344 343 343 343 341 340 339 338 337 336 336 337 339 340 341 343 346 347 348 348 345 341 339 342 343 339 341 346 348 349 349 348 346 345 340 329 321 321 322 319 318 317
345 345 344 343 343 342 342 342 343 344 343 343 344 345 346 346 346 345 345 347 345 341 342 343 344 345 344 343 343 344 344 344 344 344 344 343 342 342 340 339 338 336 338 341 342 342 342 344 347 347 349 348 342 338 337 337 338 337 338 344 347 347 348 349 348 347 345 338 326 321 322 321 319 318
344 345 345 345 344 344 343 343 344 345 346 346 346 346 347 346 345 345 345 347 345 341 340 341 342 343 343 343 344 344 345 345 344 342 342 341 340 340 339 338 337 337 339 340 340 340 339 342 345 347 349 346 337 334 333 330 332 334 337 341 345 346 347 348 348 347 347 345 335 324 321 322 320 319
343 344 344 345 345 344 344 343 344 346 347 348 349 349 348 347 345 344 344 345 345 343 341 340 341 340 340 341 342 342 343 342 340 339 338 338 337 337 337 337 337 337 338 337 336 335 334 337 341 344 346 342 333 332 331 328 328 331 335 339 342 345 346 347 347 348 347 347 343 331 322 322 321 319
342 343 343 343 343 344 344 343 343 343 344 345 346 347 347 347 346 345 344 345 344 344 342 340 341 341 340 340 340 340 340 340 339 338 338 337 336 335 336 335 335 335 335 334 334 333 332 333 336 338 339 336 333 334 334 330 327 328 331 336 340 343 346 346 346 347 347 346 346 340 327 321 322 320
342 342 342 342 342 343 343 343 343 343 342 342 342 342 342 342 342 342 344 345 345 345 343 341 341 341 340 340 341 341 340 340 339 339 338 338 337 337 337 336 336 334 333 332 331 331 330 331 332 333 334 333 333 335 335 333 330 328 328 332 338 342 345 346 345 345 346 345 345 344 335 324 321 321
338 339 339 340 341 341 341 340 341 341 341 341 341 341 339 338 338 339 340 343 345 345 344 342 340 341 341 341 341 341 341 340 339 339 338 338 337 337 336 337 337 335 334 332 331 330 329 329 329 330 331 331 332 332 332 333 332 329 329 330 336 342 344 345 345 344 344 344 344 345 341 330 323 322
335 335 336 337 337 338 337 337 337 337 337 338 338 337 336 335 335 336 338 341 343 343 344 343 342 342 342 341 340 340 340 339 339 338 337 336 335 335 334 334 334 333 333 332 331 331 330 329 329 329 329 329 329 330 330 331 331 331 330 331 335 341 343 344 345 344 343 342 342 344 344 337 327 323
335 334 334 335 334 334 335 335 335 334 334 334 333 333 333 333 333 334 337 341 343 344 344 344 345 344 343 342 340 339 338 338 338 337 336 335 333 333 333 332 331 330 330 331 331 331 330 330 330 329 328 328 329 329 329 329 330 331 331 330 333 340 343 344 345 345 343 341 341 343 344 342 334 326
339 338 336 336 335 334 334 334 334 334 333 332 330 330 330 331 332 333 336 339 342 344 344 345 344 342 341 339 338 337 336 335 334 333 333 334 334 335 335 333 332 332 332 332 332 332 331 331 332 331 329 329 330 329 328 328 328 329 330 330 330 334 340 343 345 345 343 341 341 342 343 344 340 332
342 342 341 340 339 339 338 338 338 338 339 338 336 334 333 333 332 331 332 334 336 338 338 338 336 334 333 331 330 330 330 330 331 331 333 336 338 340 340 336 334 335 336 335 334 334 334 334 334 332 331 331 331 330 328 326 327 328 329 330 330 330 333 337 341 343 344 342 340 341 342 344 343 339
344 343 343 343 343 343 343 343 343 343 343 343 342 341 341 340 338 335 333 332 331 332 332 331 331 330 330 329 330 330 331 332 333 336 339 341 342 344 344 340 335 334 337 340 338 335 335 336 334 332 332 333 334 332 330 328 327 328 328 328 329 330 330 331 334 337 341 342 341 341 342 343 344 343
344 344 344 344 344 344 344 344 345 344 344 344 344 345 344 344 344 343 340 338 335 335 334 334 335 336 336 336 337 337 337 338 339 341 343 344 345 346 347 346 342 338 340 344 343 339 337 337 336 334 333 334 334 333 332 331 330 329 329 329 329 330 330 329 329 330 334 339 341 341 342 343 343 344
343 343 344 344 344 344 344 344 345 345 345 345 345 345 345 345 346 346 346 345 344 343 343 343 342 342 342 343 343 343 342 342 343 344 345 345 345 346 347 349 348 346 345 346 346 344 341 340 339 337 335 335 335 333 332 332 332 331 331 330 329 330 330 330 329 326 327 333 340 341 342 343 343 343
344 344 343 343 344 343 343 343 344 344 344 345 345 345 346 346 346 346 347 347 347 347 347 347 346 346 346 346 346 345 345 345 345 345 345 345 345 346 347 349 349 348 347 348 348 347 345 343 343 341 338 338 338 335 333 333 332 332 332 332 331 330 330 330 328 326 324 329 337 341 342 343 344 344
345 344 344 343 342 342 342 342 342 343 343 344 345 345 345 346 346 346 347 347 347 348 348 348 347 347 347 347 347 347 346 346 346 346 346 346 346 347 348 349 349 348 348 348 349 348 347 346 347 345 343 343 342 339 335 333 333 333 334 334 333 332 332 331 329 326 324 327 335 341 342 343 345 345
345 345 345 345 344 344 343 343 343 343 343 343 344 344 345 346 346 346 346 346 347 347 347 347 348 348 347 347 348 347 347 347 347 347 347 347 347 348 348 349 348 348 348 350 350 350 349 349 349 348 347 347 346 342 338 335 334 334 335 336 335 334 333 332 331 328 325 326 333 340 343 343 344 345
345 345 345 346 346 345 345 345 344 344 343 343 343 343 343 344 344 345 345 345 345 346 347 348 349 349 349 349 348 348 349 349 348 347 348 348 348 349 349 349 350 350 351 353 353 353 351 350 350 349 348 349 348 344 341 338 335 334 334 335 336 334 334 333 331 330 328 326 331 338 342 343 344 345
347 347 347 346 346 346 345 345 345 344 344 344 344 344 344 344 344 344 344 344 345 347 348 349 349 350 350 350 349 349 350 351 349 348 348 349 349 350 351 351 352 353 354 353 354 355 353 351 353 352 350 350 349 347 343 339 338 337 335 335 336 336 335 334 332 331 329 328 330 336 340 342 343 344
348 349 349 349 348 348 347 346 346 346 345 345 345 345 346 346 345 345 346 346 347 348 348 348 349 350 350 350 350 350 351 351 350 349 349 350 351 351 353 353 354 354 353 351 352 354 354 354 355 355 354 354 353 352 349 344 340 339 337 335 335 335 336 336 334 333 332 330 331 335 338 340 341 342
351 351 351 351 351 350 350 350 349 349 348 348 347 347 348 348 348 348 348 349 349 349 349 349 350 350 350 351 351 351 351 352 351 351 352 353 353 353 354 355 355 355 354 352 351 352 353 354 355 355 355 355 354 354 354 351 347 345 341 337 335 334 335 336 336 336 334 333 332 333 335 337 338 338
352 353 353 353 353 352 352 352 351 351 351 350 350 349 350 350 350 350 349 350 350 350 350 350 351 351 350 351 352 353 352 352 352 353 354 354 354 354 354 355 356 355 355 353 352 353 353 354 354 355 355 356 355 354 355 355 353 352 349 344 341 338 336 336 337 337 337 336 335 334 333 333 335 337
352 352 352 353 353 352 352 352 352 352 352 352 351 352 352 352 351 352 351 352 352 352 352 352 351 351 351 351 352 354 354 354 354 355 355 355 355 354 354 355 355 354 354 353 353 353 353 354 355 354 355 356 356 355 355 355 355 355 353 350 348 345 343 340 338 338 338 338 338 337 337 336 336 337
350 350 351 351 351 351 351 351 351 351 350 351 351 351 352 352 352 352 352 352 353 353 353 353 353 352 352 351 352 352 353 354 354 354 354 354 353 354 353 353 353 353 352 352 352 353 354 354 354 354 355 355 355 355 356 355 356 355 354 353 352 349 348 346 344 342 340 339 338 339 339 340 340 340
345 346 347 348 349 349 350 350 350 350 350 350 350 350 351 352 351 351 351 351 351 351 352 352 352 353 353 353 352 352 352 353 353 353 353 353 353 353 352 352 352 352 351 352 353 353 353 353 353 353 355 354 354 355 356 355 355 355 355 355 354 352 350 349 349 347 344 341 339 338 338 339 341 343
336 337 338 340 342 344 345 346 346 347 348 350 350 351 352 352 351 351 350 350 349 349 349 350 350 351 351 352 352 353 353 353 352 352 352 352 352 352 352 352 351 351 351 352 353 353 353 352 352 353 354 355 355 355 355 355 355 355 355 355 356 355 353 351 351 350 348 345 343 340 339 338 339 341
329 329 330 331 333 334 335 336 337 339 341 344 345 347 347 348 348 348 347 347 346 346 347 348 349 349 350 351 351 351 351 351 351 351 352 352 353 353 353 353 352 352 352 353 353 353 352 352 352 353 354 355 354 354 355 355 355 355 355 356 356 356 355 353 351 351 351 349 347 345 342 340 339 338
327 328 328 328 328 328 329 329 329 330 332 334 336 338 340 341 344 345 344 344 344 344 345 346 347 348 349 349 349 349 349 349 350 351 351 352 353 353 354 354 353 353 354 354 354 353 352 351 352 353 355 355 354 354 355 355 355 354 355 355 356 355 355 354 353 352 351 351 349 347 346 344 342 339
327 327 327 327 327 328 328 329 330 330 330 330 332 333 334 337 340 341 342 343 344 344 344 345 345 346 347 347 347 347 348 348 348 349 350 351 351 352 352 353 353 353 354 354 354 353 353 351 351 353 354 354 354 354 354 354 355 355 355 356 356 356 356 355 354 352 350 349 348 347 347 348 347 345
323 324 324 325 325 326 327 328 329 329 330 330 330 331 332 334 335 336 336 338 341 342 342 343 344 344 344 345 345 345 346 346 347 347 348 349 350 350 351 351 352 352 353 353 354 354 354 353 352 352 353 354 355 355 355 355 355 356 356 356 356 356 356 355 354 354 352 349 347 347 348 349 350 349
316 317 318 319 320 321 322 323 324 325 326 327 327 328 328 329 330 330 331 334 337 339 340 340 340 342 343 343 343 343 343 343 344 345 346 346 347 348 349 350 351 351 351 352 353 353 354 353 352 352 352 353 354 356 356 357 357 356 356 356 356 355 355 354 354 354 353 351 348 348 348 349 349 350
312 313 313 313 314 315 315 317 318 318 319 320 321 322 323 324 325 326 327 328 331 334 337 339 340 341 342 342 342 342 341 340 342 345 345 344 345 346 347 348 349 350 350 350 351 351 351 352 352 352 352 352 353 354 354 355 356 356 356 355 355 354 354 354 354 354 354 353 351 350 349 349 350 350
313 313 312 312 312 312 312 312 312 313 313 313 314 315 316 317 319 321 322 322 324 326 329 332 334 335 336 338 338 339 339 339 341 343 344 343 345 347 347 347 347 348 349 349 349 350 350 350 351 351 351 351 351 352 352 352 353 354 354 354 354 354 354 354 354 354 354 354 353 352 350 350 350 351
313 313 312 312 312 312 312 312 312 312 312 312 312 311 311 312 313 314 316 317 318 319 320 322 324 326 327 329 331 332 333 335 337 339 340 341 343 345 346 347 346 346 346 347 348 349 349 349 349 350 351 351 350 351 351 351 350 350 351 352 352 354 354 353 353 353 354 354 354 353 352 350 349 349
313 313 313 312 312 312 312 312 312 312 312 312 312 312 311 311 311 312 312 313 313 314 315 316 317 319 320 321 323 324 325 326 328 330 332 334 336 338 341 344 344 345 345 345 345 347 348 347 347 349 351 352 352 352 352 351 350 350 350 351 351 352 353 353 352 352 353 353 353 353 353 351 348 347
314 313 313 313 312 312 312 312 312 312 312 312 312 312 312 311 311 312 311 311 312 312 312 312 313 314 315 316 317 319 320 321 322 323 324 326 327 329 332 334 337 340 343 344 345 346 347 347 346 347 349 352 352 353 352 352 351 351 351 351 351 351 351 352 352 352 353 353 352 353 353 352 350 349
314 314 313 313 313 312 312 312 312 312 312 312 312 312 312 312 312 312 311 311 311 312 312 312 312 312 312 313 313 314 315 317 318 319 320 321 322 323 324 325 327 330 335 338 342 344 345 346 347 347 348 349 350 350 350 350 350 350 350 349 350 350 351 351 352 352 353 353 353 353 353 352 352 351
315 314 314 314 313 313 312 312 312 313 313 313 312 312 312 312 312 312 312 312 312 311 311 311 311 312 312 312 312 312 312 313 314 315 316 318 319 320 321 322 322 323 326 329 332 336 339 343 346 347 348 349 349 349 348 348 348 348 349 350 349 350 350 351 351 351 351 352 352 352 352 352 352 352
315 314 314 313 313 313 313 313 313 313 312 312 312 312 312 312 312 312 312 312 312 312 312 311 311 311 311 311 312 312 312 312 312 313 313 314 315 316 317 319 320 321 322 323 324 327 330 333 337 340 343 345 346 346 346 347 346 347 348 349 349 348 348 348 349 350 351 351 351 351 351 352 352 352
313 313 313 313 312 312 312 312 312 312 312 312 311 311 311 311 311 311 312 312 312 312 312 312 312 312 312 312 311 312 312 312 312 312 312 313 313 313 314 315 317 318 319 321 322 322 324 325 326 329 331 334 337 340 342 343 343 344 345 346 348 348 347 346 347 348 349 350 351 351 351 351 351 350
312 312 312 311 311 311 310 311 311 310 310 310 310 310 310 310 310 310 311 311 311 311 312 312 312 312 312 312 312 312 312 312 312 312 312 313 313 313 313 313 314 315 317 318 319 320 321 322 322 323 325 327 330 334 337 339 339 341 342 343 345 347 346 345 345 346 347 348 349 350 351 351 351 351
311 311 310 310 310 309 309 309 309 309 309 309 308 308 309 309 309 309 310 310 310 310 310 311 311 312 312 312 312 313 313 313 313 313 313 313 313 313 313 313 314 314 315 316 317 318 319 320 321 322 323 324 327 330 333 336 338 338 340 341 343 344 345 344 344 345 347 347 347 348 350 350 350 351
310 309 309 309 308 308 308 308 308 307 308 308 308 307 308 308 308 308 309 309 309 309 309 310 310 310 311 311 311 312 312 312 312 313 313 313 313 313 313 313 314 314 315 316 317 317 318 318 319 321 322 322 324 325 328 331 334 335 337 339 340 341 342 343 344 345 346 347 347 347 348 349 349 350
Wind_Speed
9 9 9 9 10 10 10 9 10 9 9 9 9 9 10 10 10 9 10 10 10 10 10 10 11 12 11 11 11 11 12 12 13 14 16 17 19 20 21 21 20 19 18 18 18 17 16 16 15 15 14 15 15 17 18 19 18 17 17 18 18 18 19 20 21 21 20 19 18 18 18 18 17 16
9 9 9 10 10 10 10 10 11 11 11 11 12 12 12 12 12 11 11 13 12 11 11 10 11 13 12 12 12 12 13 14 14 15 17 18 20 21 21 20 20 19 17 17 17 17 17 17 16 15 15 15 16 17 18 19 19 17 16 16 16 16 17 18 20 21 20 19 18 17 17 17 17 16
9 9 9 10 9 10 10 11 12 13 13 13 13 13 13 13 13 13 13 13 14 14 13 11 11 12 12 12 13 13 14 15 16 16 17 18 19 20 20 19 19 18 17 17 17 18 18 17 17 16 16 16 17 18 18 19 19 17 16 16 15 15 16 17 18 19 20 20 18 17 16 16 16 15
9 9 9 9 9 9 10 11 12 13 13 14 13 13 13 13 13 14 14 15 16 15 13 12 11 11 12 12 12 12 13 14 15 15 16 17 18 18 19 19 18 17 16 16 17 18 18 18 17 17 17 17 18 18 18 19 18 17 15 15 15 14 14 16 17 18 19 20 18 16 15 15 15 15
8 9 9 9 9 9 10 10 11 11 12 12 13 12 13 13 13 14 14 16 17 16 13 12 12 12 13 12 11 11 12 13 14 15 15 16 16 16 17 17 17 16 16 16 18 19 19 19 18 17 17 18 18 18 18 18 18 16 15 15 15 14 14 15 16 16 18 19 18 17 15 14 14 14
8 9 9 9 9 9 10 10 10 11 11 11 11 11 12 12 12 13 14 15 17 18 16 15 14 14 14 13 12 12 13 14 14 14 14 14 14 14 15 16 16 16 16 17 18 19 19 18 17 17 18 18 17 17 17 17 17 16 15 15 15 14 14 14 15 15 16 17 18 17 15 13 12 13
8 9 9 8 8 9 10 10 10 11 11 11 11 11 12 12 12 12 13 14 16 18 18 17 17 17 15 13 12 12 13 13 13 13 13 12 12 12 13 14 14 15 16 17 19 19 19 18 18 17 17 17 16 16 17 17 17 16 16 16 15 14 14 14 15 15 15 16 16 16 15 13 11 11
9 10 10 9 9 10 10 10 11 11 12 12 12 13 12 12 13 13 13 13 14 17 19 18 17 16 14 13 12 12 13 13 12 12 12 12 12 11 12 13 14 14 15 17 18 19 19 19 19 18 18 17 16 17 17 17 17 17 17 16 15 14 14 14 15 15 14 14 15 15 15 13 11 9
11 11 11 10 10 11 11 11 11 12 12 13 13 13 13 13 13 13 13 14 14 16 18 18 15 13 13 13 13 13 14 15 15 14 14 14 14 13 13 14 15 16 17 18 19 19 19 19 19 19 19 19 19 19 17 16 16 16 17 17 16 14 14 14 15 15 14 13 13 13 13 13 11 9
11 12 12 12 12 12 13 13 13 13 13 14 14 14 14 13 12 13 13 13 14 15 16 16 15 14 14 15 15 15 15 17 17 17 17 16 16 16 16 17 17 19 20 20 21 21 21 20 20 20 21 21 21 21 19 17 15 15 16 16 16 15 14 14 14 15 14 13 12 12 12 12 11 9
10 11 12 12 12 13 13 13 13 13 13 13 14 14 14 13 13 13 13 13 13 14 15 16 16 17 17 17 17 17 17 17 18 19 20 19 18 19 20 20 20 20 21 22 23 23 23 22 21 21 22 22 22 22 20 17 15 14 15 15 15 15 15 15 14 14 14 13 11 11 10 10 11 10
9 10 11 11 12 12 12 12 12 12 13 13 14 14 14 14 14 14 14 14 15 16 17 18 18 19 20 20 19 19 19 19 19 20 21 22 21 21 22 22 21 22 22 23 23 24 24 24 23 23 22 22 21 22 21 18 16 15 15 15 15 15 16 15 15 14 14 13 11 10 9 9 9 9
8 9 9 10 11 11 11 11 11 11 12 13 14 14 14 14 15 15 15 16 16 17 19 20 20 21 22 21 20 20 19 19 19 20 21 22 22 23 24 23 22 23 23 24 24 25 25 25 25 25 23 22 21 20 20 19 18 18 17 16 16 16 16 16 15 15 14 13 11 10 9 8 8 8
10 10 10 11 11 10 10 11 11 11 12 12 13 14 14 14 15 16 16 17 17 18 19 20 20 21 22 20 19 20 20 18 18 19 20 21 22 24 26 26 25 24 24 26 28 27 27 27 28 26 25 23 21 19 18 17 18 19 19 18 18 17 17 17 16 15 15 13 11 9 9 8 8 7
12 12 13 13 13 13 12 12 13 13 13 13 13 13 13 14 14 15 16 17 17 18 19 19 19 20 21 19 18 19 19 18 19 19 20 22 23 24 26 28 28 27 26 28 31 31 30 30 29 28 26 23 21 19 17 16 17 19 20 20 19 18 18 18 18 17 15 14 12 9 9 8 8 7
15 15 15 16 16 16 15 15 15 15 14 14 14 15 14 14 14 15 15 16 17 17 18 19 19 20 20 20 18 18 18 19 20 21 22 23 24 26 27 28 29 29 29 30 33 34 33 32 31 30 27 25 23 21 18 17 17 18 19 20 19 19 19 19 19 18 16 15 13 10 9 8 8 8
17 17 17 17 18 17 17 17 17 17 17 17 17 17 17 16 16 15 16 16 17 17 18 20 21 20 21 21 21 19 19 21 22 23 24 25 26 27 28 29 31 31 30 31 33 35 34 33 33 33 30 29 26 24 21 19 18 18 18 19 20 20 19 19 19 19 17 15 14 12 10 9 9 9
19 19 19 19 19 18 18 18 18 19 19 19 19 20 20 19 19 18 18 18 18 19 20 22 23 23 22 24 24 23 23 24 25 25 26 26 28 29 30 31 32 32 31 30 31 34 34 33 34 35 33 31 29 26 23 21 18 18 18 19 21 21 20 19 19 18 18 16 14 14 12 10 10 10
20 21 21 22 21 21 20 20 20 20 21 22 22 22 22 22 22 21 21 20 20 21 23 24 26 26 26 27 28 27 26 27 27 27 27 28 30 32 32 33 34 34 33 30 29 32 33 32 33 35 33 31 30 27 25 22 19 19 19 19 20 21 19 19 19 19 18 17 15 15 14 13 12 12
21 22 22 23 23 23 22 22 22 22 22 23 24 25 25 25 25 25 24 24 24 25 25 27 28 29 29 29 30 30 30 29 28 27 28 29 30 31 32 33 34 33 31 28 26 28 31 31 32 33 32 31 31 29 26 23 21 20 20 19 19 19 19 18 18 19 19 18 17 16 16 15 15 15
23 23 23 23 24 24 24 24 24 24 24 24 25 26 26 27 28 28 28 28 28 28 29 30 30 30 30 29 28 29 29 29 28 28 29 30 28 28 30 31 31 30 29 28 25 25 28 29 27 29 30 29 30 29 25 22 20 20 20 19 18 18 18 18 17 18 19 19 18 18 18 18 18 18
25 26 26 25 26 26 27 27 27 27 27 27 27 27 27 28 29 29 30 31 31 31 31 31 31 30 29 28 27 27 27 26 26 27 29 29 26 27 29 30 30 29 29 30 28 25 26 26 23 24 25 24 23 22 19 19 22 20 18 19 18 18 18 18 17 17 18 20 20 20 20 20 20 20
25 26 26 27 27 27 27 28 28 28 28 28 28 28 28 29 30 30 31 32 32 32 32 31 29 28 27 26 26 26 25 24 24 25 26 25 25 27 29 28 28 29 28 29 30 29 26 24 22 22 22 22 23 21 17 20 25 24 21 20 19 19 19 19 19 19 19 20 21 22 22 22 22 22
21 21 20 21 24 25 25 26 27 26 27 27 27 27 28 29 29 30 31 31 31 31 30 29 28 27 27 26 25 25 25 24 24 24 24 24 24 27 28 26 25 26 27 27 30 30 27 23 22 22 20 21 25 24 18 19 24 24 24 23 21 20 20 20 21 20 19 20 21 22 23 23 23 23
19 19 19 19 22 24 24 25 25 25 25 26 26 27 27 27 27 28 29 29 29 29 29 28 28 27 27 26 25 24 24 24 24 24 25 25 26 27 28 28 28 29 29 28 28 29 28 24 24 24 21 21 24 24 21 20 21 22 24 24 23 22 21 21 21 21 21 21 21 22 22 22 23 23
18 18 18 18 20 21 21 22 22 22 23 24 24 25 25 25 25 25 26 26 26 26 26 26 26 26 26 26 25 25 25 25 25 25 26 27 28 28 29 31 32 34 34 32 30 31 29 27 26 26 23 23 25 26 25 23 21 21 25 28 27 26 23 22 22 22 22 22 23 23 23 24 24 24
15 15 16 16 17 18 19 19 19 19 20 19 19 20 20 21 23 23 24 25 25 25 26 26 26 25 23 23 24 25 25 25 25 25 26 27 28 29 30 31 32 34 34 32 30 30 30 30 29 26 24 25 27 27 26 25 22 20 23 26 26 24 24 25 25 25 24 24 24 25 26 26 26 26
12 13 13 14 14 15 16 16 16 16 17 17 18 18 18 20 22 23 25 27 27 27 27 26 26 25 22 21 22 22 22 23 24 25 26 27 27 27 28 30 31 32 33 33 30 28 27 28 28 25 24 25 27 27 26 26 25 22 21 21 20 18 21 28 29 26 25 25 25 26 28 29 29 28
10 11 11 11 12 12 13 13 13 13 14 15 16 17 18 19 20 21 23 24 24 24 22 20 20 21 21 20 22 23 23 25 26 25 25 24 24 25 26 27 29 29 29 29 28 25 23 24 25 23 22 23 26 28 27 26 26 24 21 21 20 18 21 29 32 29 26 26 26 27 27 29 31 31
10 11 11 11 12 12 12 13 13 13 13 14 15 16 17 15 13 13 15 15 16 17 17 17 17 19 19 19 21 23 25 25 24 24 23 22 22 22 23 25 27 27 26 24 24 23 22 24 24 21 20 22 24 26 26 24 25 25 21 20 22 21 22 28 33 32 29 27 28 29 28 28 31 33
10 10 11 11 12 12 13 13 13 13 14 14 15 15 15 14 12 11 11 12 12 14 15 15 16 17 17 18 19 21 22 21 21 21 21 21 21 22 23 24 26 26 24 22 22 23 24 25 24 21 20 21 23 24 23 23 24 25 23 21 22 21 20 23 29 32 30 27 27 30 29 28 29 31
11 11 11 12 12 12 12 13 13 14 14 14 14 14 14 14 14 14 14 13 13 14 15 16 17 17 17 17 18 19 20 20 21 21 20 20 21 22 23 23 24 25 24 23 22 23 22 23 23 21 20 21 22 22 22 23 24 26 26 25 23 21 20 19 21 23 24 25 26 28 29 28 27 28
13 13 14 14 14 14 14 14 14 15 14 14 14 14 14 14 15 16 16 16 15 14 15 16 17 18 17 18 18 19 20 21 20 20 21 21 21 22 23 23 23 24 24 24 22 21 21 22 23 22 22 23 22 21 21 22 24 26 27 27 25 22 21 19 18 18 20 22 24 26 29 30 29 29
15 16 16 17 17 17 18 18 18 18 18 18 18 18 17 17 17 18 18 19 18 17 17 18 18 19 19 20 22 22 23 23 22 21 22 21 21 21 22 23 24 24 24 24 25 24 24 24 24 23 23 24 23 23 23 24 25 26 27 26 24 23 22 19 17 17 18 20 21 23 26 28 29 29
16 17 18 18 19 19 19 20 20 20 20 21 21 21 21 20 21 21 20 21 21 20 20 20 21 22 22 24 25 26 26 26 26 24 24 23 22 21 21 23 25 25 25 26 27 26 26 26 25 25 25 25 25 26 26 25 25 25 26 25 24 24 23 20 17 16 17 18 19 21 23 25 27 28
16 17 18 18 19 19 19 19 20 20 20 20 21 21 21 21 21 22 22 23 23 23 23 23 23 24 24 25 26 27 28 28 29 28 27 27 26 23 21 23 25 26 26 27 27 27 27 28 27 26 26 26 27 27 27 26 25 25 25 24 23 23 22 21 20 19 18 18 20 21 21 24 26 26
15 16 16 17 18 18 18 18 19 19 19 20 20 20 21 21 21 21 22 23 23 24 24 25 25 25 25 26 26 28 29 30 31 31 30 31 30 26 23 23 24 24 25 28 29 29 29 30 29 27 27 29 30 28 26 27 27 25 25 25 24 23 22 23 23 22 20 19 20 21 21 23 26 26
15 15 16 16 17 18 18 18 19 19 19 20 20 20 21 21 21 22 22 23 23 24 24 25 25 25 26 27 27 28 29 30 31 31 31 32 33 32 31 30 30 29 29 30 31 30 29 30 31 29 28 30 31 29 27 27 26 25 25 27 28 27 27 26 26 24 22 20 19 21 22 25 26 26
15 15 15 15 16 17 18 19 19 19 20 20 21 22 23 22 22 23 23 23 24 25 25 26 26 26 27 28 28 28 29 30 31 32 32 33 33 34 35 36 36 36 35 35 34 32 28 27 29 29 29 31 32 31 30 31 32 33 33 32 31 30 29 28 28 27 25 22 20 20 23 25 26 25
11 12 12 12 13 15 17 18 19 20 20 21 22 22 24 24 24 24 25 25 25 26 26 27 28 28 28 29 29 30 30 30 30 31 32 33 34 34 35 36 36 37 38 38 39 37 33 28 25 24 24 26 29 30 30 32 36 38 36 33 30 29 28 27 28 28 26 24 22 21 22 23 23 24
7 7 8 9 10 12 13 15 17 18 19 21 22 22 23 24 24 25 25 26 26 26 27 28 29 29 30 30 31 32 32 32 32 32 32 33 34 35 36 36 37 37 39 40 41 41 40 37 33 31 30 30 31 32 32 34 37 38 37 34 31 30 30 29 28 27 26 25 24 25 25 24 23 24
7 7 7 8 10 11 13 15 17 18 19 20 22 24 24 24 24 25 25 25 25 26 26 27 28 29 30 31 31 32 33 34 34 35 35 35 35 35 35 36 36 37 39 41 42 43 43 43 41 39 37 35 33 32 33 35 37 38 39 37 33 31 32 33 32 30 29 27 26 26 26 25 25 26
9 9 8 9 10 12 15 16 17 20 22 24 25 25 23 21 22 24 25 25 25 25 25 26 27 28 29 30 30 32 33 34 35 36 37 38 38 37 37 36 36 36 37 39 42 43 44 45 44 41 38 35 32 29 31 35 37 38 39 38 36 34 33 34 35 35 34 33 31 29 28 27 27 28
9 9 9 9 10 12 14 15 16 19 22 24 25 25 21 18 18 20 22 23 25 26 26 27 28 28 28 28 29 31 33 34 35 37 38 38 39 39 39 39 38 38 37 38 39 41 42 43 44 41 38 37 34 30 30 33 35 37 38 38 38 37 35 34 34 35 34 34 34 32 31 30 30 30
9 9 9 10 11 13 14 14 15 17 18 19 20 21 20 18 18 20 21 22 24 27 28 28 28 27 27 28 30 33 35 36 36 37 37 37 38 38 39 40 40 40 39 38 38 39 40 42 43 42 39 37 35 33 32 32 33 35 37 38 38 38 36 33 32 32 33 34 34 34 34 34 33 32
Wind_Direction
274 273 274 275 274 273 269 264 265 269 277 285 292 301 306 311 316 318 317 319 321 321 326 322 310 305 302 299 301 302 303 305 308 311 312 314 317 319 320 321 321 324 327 327 326 325 325 327 329 330 332 335 341 345 346 346 347 347 348 353 357 0 4 11 14 14 14 17 19 19 22 23 23 30
270 272 274 277 277 275 270 267 268 270 277 285 290 293 295 299 305 307 308 310 313 318 323 321 312 306 301 297 298 300 302 305 307 308 310 313 314 315 317 318 319 320 321 321 321 321 323 326 328 329 333 335 338 342 342 342 343 342 343 346 352 356 359 6 12 13 12 14 19 21 22 24 24 27
266 269 273 275 276 273 269 266 267 271 277 284 288 288 290 293 296 299 300 300 304 313 319 318 315 311 307 303 301 301 302 304 306 309 311 312 311 311 314 315 317 318 318 317 317 319 321 324 325 328 332 334 336 338 338 338 339 339 339 341 344 349 354 360 7 11 11 11 15 20 23 25 25 26
262 266 270 272 273 272 271 268 268 272 277 283 287 289 290 292 292 294 294 293 298 308 314 314 315 313 310 310 310 308 307 307 308 310 310 309 309 311 313 314 316 318 318 315 314 315 317 319 321 325 328 330 332 335 336 336 337 336 335 336 338 342 347 354 1 6 9 9 11 16 22 26 27 27
261 266 266 265 267 269 270 270 271 275 280 285 290 292 293 294 295 294 291 291 296 304 309 309 310 309 308 310 311 309 309 309 308 306 307 309 312 316 316 315 318 320 317 314 312 312 314 314 317 321 323 326 329 334 337 336 334 333 331 331 333 335 339 346 354 1 6 7 8 11 18 25 29 29
262 266 265 265 266 269 270 273 274 276 278 282 287 292 295 298 302 300 296 292 295 301 307 308 309 311 311 311 312 310 311 311 310 311 314 318 320 321 320 319 320 319 315 313 312 313 314 313 314 318 319 321 327 335 339 337 332 330 328 327 328 330 332 338 346 354 2 5 6 8 12 20 29 32
264 266 266 266 268 269 270 273 275 276 277 280 283 287 290 293 298 301 299 295 295 299 303 307 311 314 315 316 317 316 316 319 321 323 328 329 326 326 325 322 320 318 314 312 312 312 313 313 312 313 314 316 323 332 338 338 333 330 326 323 324 328 330 333 339 347 356 2 3 5 8 14 24 32
267 267 268 267 266 268 270 272 275 277 280 284 287 290 291 291 293 295 294 294 294 296 299 305 310 314 316 317 319 320 321 322 323 326 329 330 328 328 328 325 321 318 314 311 309 309 310 310 309 309 309 311 315 322 330 333 332 330 326 321 320 325 330 333 336 341 349 357 1 3 6 9 16 28
268 268 268 269 269 271 275 277 279 281 283 286 289 292 296 297 295 292 290 290 291 292 297 302 307 309 310 310 312 317 320 321 322 323 325 324 324 322 321 321 320 317 314 312 310 309 309 308 307 306 306 307 308 313 319 323 326 327 325 321 318 319 325 331 333 336 342 350 356 0 5 8 11 21
274 273 272 272 272 274 277 280 283 286 288 288 290 291 293 295 296 295 293 290 289 290 293 297 300 302 303 303 306 310 315 319 321 322 320 319 319 319 316 314 313 312 312 311 310 311 311 310 310 307 305 305 305 307 311 313 316 320 322 321 317 314 317 324 329 331 335 341 349 355 2 8 9 14
277 277 277 278 278 280 282 285 289 292 294 294 293 293 294 294 293 293 292 287 285 287 289 293 296 298 299 300 302 305 307 311 315 317 318 317 316 316 315 313 311 308 307 307 308 310 311 311 311 309 307 305 304 304 305 306 305 308 311 313 312 310 311 316 322 325 328 332 339 347 356 5 9 11
278 279 280 280 281 284 287 290 292 294 296 297 296 296 298 297 295 294 292 288 285 286 288 290 293 295 297 298 300 302 303 305 309 313 316 317 317 316 314 312 311 309 307 307 308 309 310 310 311 311 310 310 307 304 301 299 297 296 297 300 303 304 304 308 313 317 321 323 328 337 347 357 5 9
273 275 279 281 283 287 289 290 291 293 296 298 297 298 298 296 295 294 292 290 288 288 290 291 294 296 297 300 302 303 304 306 309 311 314 316 317 317 313 309 307 308 309 308 307 306 308 310 311 311 313 315 315 311 304 298 293 289 287 289 292 295 297 300 304 309 313 315 317 326 336 345 354 2
265 267 270 274 277 279 283 286 288 290 293 294 295 297 297 296 294 290 288 287 287 288 289 290 293 295 296 299 303 305 307 311 312 313 315 314 314 314 311 307 304 304 307 308 306 305 307 309 310 311 313 317 318 316 311 303 295 290 287 285 285 287 290 293 296 300 304 306 306 313 324 333 342 348
259 263 267 271 273 272 273 278 280 281 283 285 287 288 289 289 289 288 286 285 285 286 287 289 291 292 294 299 303 306 309 312 311 311 311 312 313 313 311 308 306 306 308 308 307 306 308 309 310 311 312 314 314 313 311 306 298 294 291 289 286 285 285 287 289 291 294 297 296 299 311 321 328 334
257 259 264 272 275 275 274 277 280 280 279 280 281 279 279 279 280 283 285 285 285 286 287 288 289 290 294 298 300 303 305 305 304 304 305 307 308 308 308 308 308 308 309 309 307 307 309 311 311 312 312 311 309 307 305 302 298 295 295 294 292 287 284 284 285 286 287 288 285 284 294 308 317 323
261 262 264 268 271 273 274 275 277 278 278 277 277 275 275 274 274 276 278 281 284 287 289 290 290 291 294 296 295 297 299 298 298 299 300 301 301 302 303 304 305 306 308 309 308 307 309 312 312 312 313 312 310 306 303 300 296 294 293 294 293 291 287 284 283 284 285 282 277 274 278 291 304 311
265 266 267 267 267 269 270 272 274 274 274 273 273 274 274 274 274 275 275 278 281 285 288 291 291 291 292 293 292 292 292 293 295 295 295 295 296 297 298 300 302 304 306 308 307 306 309 312 312 311 313 314 311 307 303 299 294 292 292 292 292 292 289 286 283 282 283 280 273 267 268 276 288 297
268 267 268 269 269 269 270 273 275 275 274 273 273 273 273 273 274 274 275 279 282 285 288 290 291 291 290 289 290 290 290 289 290 291 291 291 292 294 296 298 301 304 307 307 306 305 307 309 309 310 313 313 311 308 305 300 294 289 289 291 292 293 291 287 283 280 280 279 272 265 264 268 275 283
275 273 271 272 273 274 275 277 277 277 278 277 277 276 275 275 275 275 278 280 283 286 288 290 292 293 291 288 287 287 288 288 287 287 286 288 290 292 295 297 300 304 307 307 305 304 307 308 308 309 311 310 308 306 304 301 296 289 288 289 289 291 292 290 286 281 277 275 271 265 264 265 269 273
280 280 279 280 280 280 280 280 280 281 281 281 282 281 280 279 278 279 281 282 284 286 288 291 293 294 292 290 286 285 285 285 285 283 284 288 291 292 293 297 300 303 305 305 303 302 306 309 308 309 309 309 309 308 305 303 300 291 286 285 283 283 286 288 287 283 278 273 269 265 265 266 267 269
279 280 280 281 282 282 283 283 283 284 284 284 284 284 283 282 281 282 282 282 284 286 288 291 293 293 292 290 287 285 284 283 281 280 284 290 291 290 292 296 301 302 303 304 304 302 305 307 306 306 306 305 307 308 303 305 309 302 289 283 278 276 279 281 281 279 275 271 268 265 265 266 267 268
277 278 279 279 279 279 280 280 281 281 281 281 280 280 280 280 281 282 282 283 285 287 288 290 291 290 291 291 289 286 283 281 278 278 284 288 288 288 291 294 297 298 298 301 302 300 302 302 300 301 302 300 301 302 296 302 311 310 302 294 285 276 274 275 275 275 271 269 267 266 266 266 267 268
280 280 279 278 277 276 276 276 277 277 277 276 276 276 277 278 279 281 282 283 285 285 286 288 289 288 289 291 291 289 286 284 281 280 281 282 282 284 286 288 289 289 292 296 298 298 299 296 291 292 292 292 296 300 297 298 303 306 306 305 298 289 282 276 273 272 271 268 267 266 267 266 266 268
286 281 276 273 273 273 273 273 274 275 275 275 274 274 274 276 278 280 281 283 284 284 285 285 286 286 287 288 290 289 288 287 285 285 284 283 282 282 283 284 284 285 289 292 293 293 295 292 288 288 286 283 288 293 295 293 296 300 303 304 303 299 293 286 279 275 272 270 267 266 267 266 266 266
287 283 281 280 280 279 277 277 277 279 280 279 277 276 275 275 277 278 280 282 285 287 287 286 285 285 285 286 285 284 284 285 285 286 285 284 284 283 283 284 284 285 288 289 286 287 289 288 287 287 285 282 283 287 289 290 293 297 300 304 307 304 297 294 290 284 277 270 266 264 264 265 264 264
289 286 285 284 284 283 284 285 286 288 290 288 285 281 278 277 280 283 284 286 287 288 288 287 286 287 287 286 285 283 283 283 283 284 283 284 285 284 284 284 284 284 286 286 284 285 287 288 288 286 284 283 282 282 284 286 289 291 294 301 306 303 298 300 299 294 286 278 270 265 263 262 262 263
297 294 290 287 284 283 284 286 287 286 286 285 282 280 279 279 282 286 288 289 290 291 291 290 289 289 291 290 289 286 286 287 287 287 288 288 288 287 287 288 288 288 288 288 287 287 289 291 291 285 281 281 279 279 280 283 286 288 290 292 293 291 294 299 301 299 295 288 278 270 266 263 262 261
295 295 295 294 291 289 287 286 286 283 280 278 277 278 280 283 288 291 292 293 295 296 296 294 293 293 293 292 290 290 292 294 295 295 295 294 293 292 292 291 291 291 291 292 292 292 293 297 296 286 279 276 274 275 278 280 283 287 287 287 287 286 289 296 300 303 302 298 292 284 275 268 264 262
290 289 290 290 290 289 288 286 287 286 284 282 279 277 277 279 285 293 297 299 301 301 300 299 298 296 295 293 292 293 295 296 297 297 297 297 296 296 296 295 295 295 294 293 294 293 296 304 304 293 281 277 273 272 275 277 281 284 284 285 287 289 292 296 300 303 305 304 300 294 286 276 269 264
286 286 287 288 289 290 291 291 291 289 288 287 284 282 281 277 272 273 279 282 286 287 287 287 288 290 293 295 296 296 297 297 298 298 298 298 297 297 297 296 296 297 298 296 297 297 299 307 309 299 285 278 275 273 273 274 277 281 283 283 283 285 289 293 297 302 306 305 300 296 292 286 277 268
291 292 293 292 292 293 292 291 289 287 287 287 288 290 291 286 281 278 275 271 270 273 277 280 282 287 293 297 298 298 298 298 298 298 297 297 296 296 296 293 292 295 297 297 298 298 298 303 307 302 290 280 275 272 272 271 273 277 281 283 282 283 287 289 291 295 301 304 302 297 294 292 285 275
303 303 303 302 301 301 300 298 297 296 296 297 298 300 302 301 299 297 292 285 280 279 283 288 291 294 297 299 300 300 301 301 300 299 299 299 297 294 293 292 291 293 295 296 296 294 292 295 300 300 294 286 279 274 272 271 271 273 277 282 284 285 288 290 289 286 288 295 301 300 296 296 293 287
312 312 311 310 309 309 309 309 309 308 307 307 307 307 308 308 308 308 305 302 297 292 289 289 292 294 296 297 297 298 300 301 299 299 303 306 305 299 294 292 291 292 294 295 296 296 294 293 294 295 294 289 282 277 275 274 274 275 278 282 285 287 288 289 288 285 284 288 293 296 295 295 294 291
316 316 316 316 315 315 314 313 313 313 312 311 311 310 310 310 309 308 307 306 305 303 299 296 295 296 296 296 297 298 300 300 297 297 300 302 304 304 300 296 295 295 295 295 297 298 298 297 296 295 294 291 288 285 281 280 280 282 283 285 287 288 288 286 282 280 282 283 285 288 291 293 292 291
312 313 314 315 315 316 316 315 315 316 315 315 314 313 312 312 311 310 309 308 307 307 306 303 303 302 301 301 301 300 300 299 297 297 297 297 299 303 304 302 301 300 298 296 296 297 298 299 299 299 299 297 295 293 291 290 290 288 288 289 289 287 287 286 283 280 279 280 281 281 285 291 295 295
309 309 310 311 313 314 315 315 315 316 316 316 316 315 314 314 313 312 311 310 309 309 308 307 307 306 306 305 303 302 301 301 300 300 299 298 299 300 300 298 298 299 298 297 296 297 300 301 301 302 301 295 287 285 291 297 297 292 291 292 292 289 286 286 285 283 281 280 281 280 280 287 296 299
303 304 305 306 308 311 313 314 315 316 317 316 316 315 314 313 313 312 311 310 310 309 309 308 308 308 308 307 306 304 304 303 303 303 302 301 300 300 298 297 296 295 295 293 293 294 299 301 301 301 300 293 284 282 291 298 295 290 289 288 287 287 286 283 283 283 281 280 281 280 279 283 290 296
299 299 300 301 303 305 308 310 313 314 316 317 318 317 315 314 313 312 311 311 310 310 310 309 309 309 309 309 308 307 306 305 305 305 304 303 303 302 302 301 300 297 295 292 291 291 294 298 301 301 300 295 290 289 292 292 289 288 287 286 283 281 280 280 282 282 280 279 278 278 280 284 290 294
300 299 299 299 300 302 303 305 307 310 312 314 314 314 314 314 314 314 313 312 311 310 309 309 309 309 310 310 309 309 307 306 305 305 304 304 303 303 303 303 302 301 298 295 293 291 290 291 292 293 291 289 289 289 289 288 288 288 287 285 282 279 276 278 282 281 278 276 276 276 278 281 284 287
294 297 297 297 299 302 303 303 304 307 309 311 312 312 312 312 312 311 311 311 310 310 309 309 308 308 308 308 308 308 307 307 306 304 304 303 302 301 301 302 302 301 300 298 296 294 292 290 288 284 280 278 280 285 287 287 288 289 287 286 285 284 283 284 283 279 277 276 275 274 275 276 277 279
287 290 292 293 295 300 302 304 306 309 312 314 314 314 314 313 312 312 310 309 309 309 308 308 307 307 307 307 307 307 307 306 306 305 305 304 303 302 301 301 301 301 301 300 298 296 296 296 295 293 288 284 282 284 284 284 285 288 288 287 286 286 288 290 288 282 280 278 274 269 269 271 274 277
282 286 291 292 294 299 302 304 306 310 313 315 316 316 315 314 314 314 314 311 310 308 307 307 307 306 306 306 305 305 305 305 305 305 305 305 305 303 302 301 301 300 300 299 298 297 297 297 299 300 297 293 289 286 283 283 283 284 284 285 285 284 285 288 289 287 284 281 277 271 267 267 270 272
282 286 289 290 295 299 302 303 306 308 310 312 315 316 314 311 312 313 313 312 310 309 308 307 306 305 304 303 303 304 304 304 304 304 303 303 303 303 303 303 302 301 300 299 298 298 297 297 299 300 299 297 294 288 283 282 282 281 281 282 282 283 284 286 287 287 285 281 279 276 273 270 270 271
285 287 288 290 294 298 300 301 304 307 309 310 311 312 311 309 309 310 310 310 310 310 309 307 305 303 302 301 302 302 302 302 302 302 302 301 300 301 301 302 302 302 301 301 300 299 297 296 297 298 299 298 295 291 286 284 282 282 282 280 279 281 283 284 282 281 281 279 279 279 278 276 275 275